Orbital Elements at Epoch 2459200.5 (2020-Dec-17.0) TDB
Reference: JPL 41 (heliocentric ecliptic J2000)
Element | Value | Uncertainty (1-sigma) | Units |
e | .195222007625005 | 3.3073e-08 | |
a | 2.188112717994299 | 6.5298e-09 | au |
q | 1.760944960277645 | 7.3775e-08 | au |
i | .5864604970046625 | 3.0545e-06 | deg |
node | 102.5649820942049 | 0.00036596 | deg |
peri | 283.8767771773688 | 0.00036606 | deg |
M | 306.2647522429376 | 1.0116e-05 | deg |
tp | 2459376.965461931765 (2021-Jun-11.46546193) | 3.3719e-05 | TDB |
period | 1182.232686125207 3.24 | 5.2921e-06 1.449e-08 | d yr |
n | .3045085829760872 | 1.3631e-09 | deg/d |
Q | 2.615280475710953 | 7.8046e-09 | au |
|
| | Orbit Determination Parameters
Additional Information
|